Stations météo

Publicité
Tholey, Allemagne (10706): Température de l'air & dewpoint: 19.06.2018 15:00:00 - 25.06.2018 15:00:00 (CEST)Tholey, Allemagne (10706): Température de l'air 5cm & Température de l'air -5cm: 19.06.2018 15:00:00 - 25.06.2018 15:00:00 (CEST)Tholey, Allemagne (10706): Température de l'air -20cm & Température de l'air -100cm: 19.06.2018 15:00:00 - 25.06.2018 15:00:00 (CEST)Tholey, Allemagne (10706): Vitesse du vent & gusts: 19.06.2018 15:00:00 - 25.06.2018 15:00:00 (CEST)Tholey, Allemagne (10706): Direction du vent: 19.06.2018 15:00:00 - 25.06.2018 15:00:00 (CEST)Tholey, Allemagne (10706): reduced air pressure: 19.06.2018 15:00:00 - 25.06.2018 15:00:00 (CEST)Tholey, Allemagne (10706): visibility: 19.06.2018 15:00:00 - 25.06.2018 15:00:00 (CEST)Tholey, Allemagne (10706): Ensoleillement: 19.06.2018 15:00:00 - 25.06.2018 15:00:00 (CEST)Tholey, Allemagne (10706): Quantités de précipitations: 19.06.2018 15:00:00 - 25.06.2018 15:00:00 (CEST)
Date & Time tt [°C] td [°C] tt 5cm [°C] tt -5cm [°C] tt -20cm [°C] tt -100cm [°C] ff [km/h] ff [knt] fx [km/h] fx [knt] dd ppp [hPa] vv [km] sd [min] rr [mm]
25.06.2018 15:00:00 18,1 10,7 24,5 27,7 19,3 16,6 18 10 31 17 NE 1023,5 34 43 0,0
25.06.2018 14:00:00 18,2 11,1 26,4 26,2 18,9 16,6 13 7 27 14 NE 1023,3 27 34 0,1
25.06.2018 13:00:00 17,4 10,4 23,4 23,7 18,6 16,6 11 6 20 11 ENE 1023,4 28 26 0,0
25.06.2018 12:00:00 15,1 10,5 19,4 20,9 18,4 16,6 11 6 18 10 ENE 1024,1 42 9 0,0
25.06.2018 11:00:00 15,1 10,1 19,3 19,2 18,4 16,6 9 5 21 11 NE 1023,9 38 0 0,0
25.06.2018 10:00:00 14,1 10,1 16,1 18,3 18,4 16,6 14 8 22 12 NNE 1023,6 26 1 0,0
25.06.2018 09:00:00 14,1 10,3 16,8 17,2 18,4 16,6 11 6 18 10 NE 1023,2 20 0 0,0
25.06.2018 08:00:00 13,6 10,0 15,0 16,7 18,5 16,6 13 7 21 12 NE 1023,0 31 2 0,0
25.06.2018 07:00:00 13,1 10,0 13,4 16,0 18,7 16,6 7 4 15 8 NNW 1022,4 29 0 0,0
25.06.2018 06:00:00 12,6 10,2 12,5 16,0 18,9 16,6 3 2 8 5 NNW 1022,3 18 0 0,0
25.06.2018 05:00:00 12,7 10,1 12,3 16,2 19,1 16,6 4 2 11 6 NNE 1022,2 23 0 0,0
25.06.2018 04:00:00 12,5 9,7 12,5 16,5 19,3 16,6 5 3 8 4 E 1022,1 26 0 0,0
25.06.2018 03:00:00 12,9 9,5 13,0 16,7 19,5 16,6 7 4 10 6 NE 1022,0 33 0 0,0
25.06.2018 02:00:00 13,2 9,2 13,1 16,9 19,8 16,6 6 4 11 6 NNE 1022,1 41 0 0,0
25.06.2018 01:00:00 13,6 9,0 13,0 17,3 20,1 16,6 7 4 14 8 NNE 1021,9 48 0 0,0
25.06.2018 00:00:00 13,6 8,6 12,9 17,8 20,3 16,6 9 5 25 13 NNE 1022,2 63 0 0,0
24.06.2018 23:00:00 14,8 8,3 14,0 18,9 20,6 16,6 15 8 29 15 NNE 1021,5 70 0 0,0
24.06.2018 22:00:00 15,4 8,9 14,7 20,1 20,7 16,6 11 6 19 11 NNE 1021,3 64 0 0,0
24.06.2018 21:00:00 16,5 8,7 16,5 21,9 20,8 16,6 12 7 22 12 NNE 1020,7 44 2 0,0
24.06.2018 20:00:00 17,2 7,8 18,4 23,5 20,7 16,6 10 5 27 14 NNE 1020,7 37 0 0,0
24.06.2018 19:00:00 18,2 7,0 19,9 25,5 20,5 16,6 11 6 21 11 N 1020,3 61 38 0,0
24.06.2018 18:00:00 19,0 7,9 22,6 26,8 20,2 16,6 12 6 20 11 NW 1020,3 47 53 0,0
24.06.2018 17:00:00 18,9 6,7 23,8 27,9 19,7 16,6 11 6 26 14 NNW 1020,5 57 54 0,0
24.06.2018 16:00:00 18,8 7,7 24,2 28,2 19,1 16,6 11 6 24 13 NW 1020,6 36 57 0,0
24.06.2018 15:00:00 19,2 8,5 25,2 26,8 18,7 16,6 8 4 20 11 WNW 1020,9 35 59 0,0
24.06.2018 14:00:00 17,7 9,2 21,3 23,3 18,4 16,6 8 4 18 10 NW 1021,5 56 14 0,0
24.06.2018 13:00:00 16,8 8,4 20,4 21,7 18,2 16,6 4 2 16 9 SW 1021,9 44 0 0,0
24.06.2018 12:00:00 16,4 7,5 20,6 21,6 17,9 16,6 5 3 13 7 N 1022,0 55 8 0,0
24.06.2018 11:00:00 16,1 8,4 18,6 21,0 17,7 16,6 6 4 14 8 WNW 1022,1 46 22 0,0
24.06.2018 10:00:00 15,3 9,4 19,0 19,1 17,5 16,6 10 6 15 8 WSW 1022,3 32 32 0,0
24.06.2018 09:00:00 15,1 10,0 18,5 17,2 17,5 16,6 4 2 6 4 SW 1022,4 32 54 0,0
24.06.2018 08:00:00 11,2 8,6 11,8 14,6 17,7 16,6 0 0 6 4 N 1023,1 26 0 0,0
24.06.2018 07:00:00 10,7 9,3 10,9 13,9 17,9 16,6 0 0 9 5 N 1023,1 32 0 0,0
24.06.2018 06:00:00 12,4 7,8 11,1 13,5 18,2 16,6 7 4 11 6 N 1022,8 32 0 0,0
24.06.2018 05:00:00 11,3 7,6 7,5 13,3 18,5 16,6 3 2 4 2 N 1023,1 42 0 0,0
24.06.2018 04:00:00 9,9 7,5 6,5 13,7 18,8 16,6 3 2 5 3 E 1023,9 40 0 0,0
24.06.2018 03:00:00 9,8 7,8 6,5 14,3 19,1 16,6 3 2 9 5 ESE 1024,4 37 0 0,0
24.06.2018 02:00:00 11,3 7,7 8,3 15,1 19,4 16,6 6 3 13 7 N 1024,5 48 0 0,0
24.06.2018 01:00:00 11,9 7,5 9,3 16,1 19,7 16,6 8 4 14 7 NNW 1024,8 66 0 0,0
24.06.2018 00:00:00 11,4 8,0 11,0 17,0 20,0 16,6 4 2 8 4 ENE 1025,2 54 0 0,0
23.06.2018 23:00:00 12,5 7,6 11,8 17,5 20,3 16,6 5 3 15 8 NNE 1025,4 67 0 0,0
23.06.2018 22:00:00 12,7 7,6 11,4 19,0 20,5 16,6 5 3 14 8 NNE 1025,1 70 0 0,0
23.06.2018 21:00:00 13,5 7,3 13,4 20,6 20,7 16,6 6 3 26 14 NE 1025,0 70 37 0,0
23.06.2018 20:00:00 15,1 7,7 18,2 22,2 20,8 16,6 11 6 26 14 NNE 1024,8 67 19 0,0
23.06.2018 19:00:00 15,0 7,7 17,0 24,1 20,7 16,6 11 6 24 13 NNE 1025,0 64 1 0,0
23.06.2018 18:00:00 16,4 7,5 20,6 26,2 20,4 16,6 10 6 22 12 N 1025,1 49 10 0,0
23.06.2018 17:00:00 16,7 7,5 21,9 28,4 19,9 16,6 12 7 24 13 N 1024,9 28 48 0,0
23.06.2018 16:00:00 17,0 7,6 22,7 28,2 19,4 16,6 16 9 28 15 N 1025,2 22 40 0,0
23.06.2018 15:00:00 17,2 7,3 22,3 29,7 18,7 16,6 14 8 28 15 NW 1025,2 51 56 0,0
23.06.2018 14:00:00 17,8 8,2 24,3 27,8 18,0 16,6 10 5 19 10 WNW 1025,4 59 46 0,0
23.06.2018 13:00:00 15,5 5,7 22,4 26,6 17,4 16,6 6 3 16 8 NW 1026,2 27 60 0,0
23.06.2018 12:00:00 14,7 5,7 21,8 23,7 17,0 16,6 9 5 17 9 ESE 1026,6 41 60 0,0
23.06.2018 11:00:00 14,0 6,1 19,7 19,8 16,6 16,6 6 4 18 10 NE 1027,0 36 43 0,0
23.06.2018 10:00:00 12,5 5,7 18,1 18,3 16,5 16,6 10 6 21 12 E 1027,5 20 60 0,0
23.06.2018 09:00:00 11,3 6,2 15,3 15,0 16,5 16,6 11 6 24 13 NE 1027,6 13 60 0,0
23.06.2018 08:00:00 10,0 6,2 12,8 12,5 16,6 16,6 10 5 14 8 N 1027,7 21 60 0,0
23.06.2018 07:00:00 8,6 6,2 7,7 11,0 16,9 16,6 2 1 6 4 NNE 1027,9 18 57 0,0
23.06.2018 06:00:00 7,4 5,5 3,6 10,6 17,2 16,6 3 2 6 3 NNW 1027,8 27 0 0,0
23.06.2018 05:00:00 7,2 5,9 2,6 11,1 17,5 16,6 3 2 9 5 ENE 1027,8 27 0 0,0
23.06.2018 04:00:00 8,3 5,8 3,5 11,6 17,8 16,6 4 2 8 4 N 1027,7 40 0 0,0
23.06.2018 03:00:00 8,4 6,1 3,8 12,3 18,2 16,6 3 2 4 2 ESE 1027,5 39 0 0,0
23.06.2018 02:00:00 8,8 6,0 5,3 13,1 18,5 16,6 4 2 14 7 ESE 1027,7 38 0 0,0
23.06.2018 01:00:00 10,1 6,0 8,0 13,8 18,8 16,6 9 5 27 15 NNE 1027,7 49 0 0,0
23.06.2018 00:00:00 11,4 6,1 9,8 14,6 19,1 16,6 14 8 37 20 NNW 1027,5 52 0 0,0
22.06.2018 23:00:00 12,1 5,9 10,5 15,7 19,3 16,6 19 10 31 17 NNW 1027,1 65 0 0,0
22.06.2018 22:00:00 12,7 5,8 11,7 17,0 19,5 16,6 13 7 20 11 NW 1026,7 64 12 0,0
22.06.2018 21:00:00 13,5 5,4 12,0 18,4 19,5 16,6 7 4 31 17 N 1026,4 70 20 0,0
22.06.2018 20:00:00 14,2 5,3 15,0 20,1 19,5 16,6 10 6 28 15 NW 1026,3 70 20 0,0
22.06.2018 19:00:00 14,3 5,0 15,9 20,9 19,5 16,6 9 5 27 15 NW 1026,1 69 30 0,0
22.06.2018 18:00:00 15,0 4,7 19,6 20,7 19,4 16,5 8 4 31 17 NNW 1026,1 53 12 0,0
22.06.2018 17:00:00 14,4 5,3 16,3 20,8 19,3 16,5 10 5 29 15 WNW 1026,0 66 0 0,0
22.06.2018 16:00:00 14,5 4,9 16,4 21,8 19,1 16,5 16 9 29 16 WNW 1025,8 61 4 0,0
22.06.2018 15:00:00 15,5 5,6 21,1 22,8 18,9 16,5 12 7 38 20 WNW 1025,4 56 21 0,0
22.06.2018 14:00:00 14,6 5,0 18,1 22,3 18,6 16,5 16 8 32 17 WNW 1025,9 58 20 0,0
22.06.2018 13:00:00 13,5 5,4 16,8 21,4 18,3 16,5 10 5 37 20 NW 1026,3 50 20 0,0
22.06.2018 12:00:00 12,7 4,5 14,8 21,0 18,0 16,5 22 12 37 20 WNW 1026,3 26 29 0,0
22.06.2018 11:00:00 12,3 4,4 17,2 19,6 17,8 16,5 16 8 35 19 W 1026,2 19 37 0,0
22.06.2018 10:00:00 11,9 5,3 16,6 17,8 17,7 16,5 11 6 35 19 N 1026,6 29 43 0,0
22.06.2018 09:00:00 10,8 5,4 15,1 15,5 17,8 16,5 10 6 30 16 NW 1026,4 13 60 0,0
22.06.2018 08:00:00 9,0 4,6 10,9 13,2 18,0 16,5 13 7 22 12 W 1026,4 11 60 0,0
22.06.2018 07:00:00 7,5 4,2 8,1 11,8 18,4 16,4 11 6 24 13 WSW 1026,5 11 45 0,0
22.06.2018 06:00:00 7,2 4,0 6,3 11,7 18,7 16,4 10 6 21 12 W 1026,3 45 0 0,0
22.06.2018 05:00:00 7,8 3,7 6,1 12,1 19,1 16,4 11 6 26 14 WNW 1026,2 51 0 0,0
22.06.2018 04:00:00 8,4 3,8 6,7 12,6 19,5 16,4 13 7 22 12 NW 1025,9 50 0 0,0
22.06.2018 03:00:00 8,5 4,3 6,6 13,3 19,9 16,4 8 5 23 12 N 1026,0 54 0 0,0
22.06.2018 02:00:00 9,4 4,2 7,6 14,0 20,3 16,4 9 5 26 14 WNW 1025,7 70 0 0,0
22.06.2018 01:00:00 10,3 3,5 8,4 14,7 20,8 16,4 12 7 31 17 NNW 1025,3 70 0 0,0
22.06.2018 00:00:00 10,9 2,5 9,2 15,7 21,2 16,4 17 9 30 16 NW 1024,8 70 0 0,0
21.06.2018 23:00:00 11,4 2,5 9,8 17,0 21,6 16,4 16 8 37 20 N 1024,4 70 0 0,0
21.06.2018 22:00:00 12,8 2,8 11,2 18,7 21,9 16,4 16 9 40 22 NNW 1023,3 70 11 0,0
21.06.2018 21:00:00 14,4 3,1 13,2 20,7 22,1 16,4 16 9 44 24 NW 1022,2 58 60 0,0
21.06.2018 20:00:00 16,2 3,4 17,7 23,0 22,1 16,3 15 8 42 23 N 1021,1 56 60 0,0
21.06.2018 19:00:00 17,7 4,4 19,8 25,1 22,1 16,3 16 9 32 17 N 1020,2 30 60 0,0
21.06.2018 18:00:00 18,2 4,2 20,6 26,7 21,9 16,3 22 12 42 23 WNW 1019,6 36 60 0,0
21.06.2018 17:00:00 18,9 4,9 22,5 27,5 21,6 16,3 26 14 44 24 WNW 1019,2 26 60 0,0
21.06.2018 16:00:00 19,2 7,1 24,7 27,5 21,3 16,3 22 12 41 22 NW 1018,6 25 51 0,0
21.06.2018 15:00:00 19,2 10,0 24,0 27,0 21,1 16,3 20 11 42 23 NW 1018,2 34 48 0,0
21.06.2018 14:00:00 19,3 11,3 23,2 25,0 20,9 16,3 18 10 48 26 WNW 1018,0 55 21 0,0
21.06.2018 13:00:00 18,7 12,8 20,6 23,9 20,8 16,3 22 12 45 25 WNW 1017,8 68 13 0,0
21.06.2018 12:00:00 19,9 13,0 22,0 24,3 20,6 16,3 23 12 41 22 W 1017,2 60 21 0,0
21.06.2018 11:00:00 20,0 12,9 22,2 24,4 20,4 16,3 23 12 45 25 WNW 1016,7 46 52 0,0
21.06.2018 10:00:00 19,9 13,4 22,7 22,7 20,3 16,3 19 10 29 16 W 1016,4 58 60 0,0
21.06.2018 09:00:00 18,7 13,1 20,7 20,7 20,4 16,3 20 11 30 16 W 1016,8 18 60 0,0
21.06.2018 08:00:00 16,4 14,3 18,1 18,8 20,6 16,3 13 7 16 9 W 1016,9 18 60 0,0
21.06.2018 07:00:00 15,7 13,8 16,0 17,5 20,8 16,3 7 4 12 6 WSW 1017,0 23 55 0,0
21.06.2018 06:00:00 14,7 13,7 13,2 17,4 21,1 16,2 8 4 16 8 W 1017,1 19 4 0,0
21.06.2018 05:00:00 15,2 13,8 13,6 18,0 21,4 16,2 8 4 18 10 W 1017,4 26 0 0,0
21.06.2018 04:00:00 17,5 13,6 15,7 18,6 21,8 16,2 13 7 25 13 NW 1017,2 46 0 0,0
21.06.2018 03:00:00 17,2 13,5 14,9 19,2 22,1 16,2 8 4 11 6 W 1017,4 59 0 0,0
21.06.2018 02:00:00 18,1 14,1 14,9 19,9 22,4 16,2 7 4 18 10 WSW 1017,5 58 0 0,0
21.06.2018 01:00:00 18,4 14,4 15,8 20,8 22,8 16,2 8 4 12 7 WNW 1017,7 51 0 0,0
21.06.2018 00:00:00 20,6 14,5 15,2 21,7 23,1 16,2 5 3 9 5 SW 1017,8 61 0 0,0
20.06.2018 23:00:00 22,1 13,5 17,1 23,0 23,3 16,2 6 3 12 6 WNW 1017,8 64 0 0,0
20.06.2018 22:00:00 22,9 13,8 17,9 24,7 23,5 16,2 5 3 15 8 W 1017,5 70 11 0,0
20.06.2018 21:00:00 25,0 13,6 23,0 26,6 23,6 16,2 10 5 14 7 WNW 1017,1 70 60 0,0
20.06.2018 20:00:00 26,3 12,9 26,7 28,7 23,4 16,2 8 5 13 7 W 1017,2 64 60 0,0
20.06.2018 19:00:00 26,9 12,4 29,3 30,9 23,1 16,2 8 4 14 7 W 1017,4 55 60 0,0
20.06.2018 18:00:00 26,6 12,5 29,9 32,7 22,7 16,2 9 5 16 9 W 1017,8 46 60 0,0
20.06.2018 17:00:00 26,6 14,4 31,7 33,8 22,1 16,2 7 4 21 11 SW 1018,3 48 60 0,0
20.06.2018 16:00:00 26,2 14,7 31,6 34,1 21,4 16,2 9 5 16 9 WSW 1018,8 66 60 0,0
20.06.2018 15:00:00 26,0 15,3 32,1 33,8 20,7 16,2 9 5 18 10 SW 1019,2 55 60 0,0
20.06.2018 14:00:00 25,1 15,1 30,7 32,5 20,0 16,2 9 5 21 11 S 1019,8 41 60 0,0
20.06.2018 13:00:00 24,5 15,7 31,0 30,3 19,4 16,2 8 4 15 8 S 1020,5 40 60 0,0
20.06.2018 12:00:00 23,0 15,7 28,9 27,9 18,9 16,2 4 2 14 7 ENE 1021,1 56 60 0,0
20.06.2018 11:00:00 22,0 15,2 27,5 25,0 18,5 16,2 8 4 22 12 SE 1021,5 40 60 0,0
20.06.2018 10:00:00 21,1 15,7 24,8 22,2 18,3 16,2 13 7 23 12 E 1021,8 33 60 0,0
20.06.2018 09:00:00 19,3 15,0 22,4 19,7 18,2 16,2 11 6 18 10 ENE 1022,3 29 60 0,0
20.06.2018 08:00:00 17,8 14,5 19,5 17,5 18,3 16,2 11 6 20 11 NE 1022,5 29 60 0,0
20.06.2018 07:00:00 16,5 14,4 16,1 16,0 18,5 16,2 14 8 19 11 NE 1022,7 41 45 0,0
20.06.2018 06:00:00 15,5 14,1 14,0 15,7 18,7 16,2 11 6 18 10 NE 1023,0 42 3 0,0
20.06.2018 05:00:00 15,7 14,2 14,1 15,8 18,9 16,2 14 8 19 10 NE 1023,2 56 0 0,0
20.06.2018 04:00:00 15,1 13,7 13,7 16,0 19,2 16,2 12 6 16 8 NE 1023,7 51 0 0,0
20.06.2018 03:00:00 15,1 14,0 13,2 16,4 19,4 16,2 9 5 11 6 NE 1023,8 54 0 0,0
20.06.2018 02:00:00 15,4 13,9 12,9 16,9 19,6 16,2 7 4 11 6 ENE 1024,1 56 0 0,0
20.06.2018 01:00:00 15,8 13,8 13,5 17,6 19,9 16,2 7 4 11 6 NE 1024,1 65 0 0,0
20.06.2018 00:00:00 16,1 14,7 13,9 18,3 20,1 16,2 4 2 7 4 ESE 1024,2 35 0 0,0
19.06.2018 23:00:00 18,0 14,7 13,4 19,4 20,2 16,2 3 2 8 4 N 1023,9 70 0 0,0
19.06.2018 22:00:00 18,6 14,8 15,3 20,8 20,3 16,2 4 2 10 5 WNW 1023,6 36 0 0,0
19.06.2018 21:00:00 19,6 15,2 18,7 22,7 20,2 16,2 6 3 12 7 WNW 1023,4 56 10 0,0
19.06.2018 20:00:00 21,1 14,9 23,3 23,9 20,0 16,2 8 4 18 10 WNW 1023,3 53 56 0,0
19.06.2018 19:00:00 21,4 15,2 24,2 24,2 19,8 16,2 10 6 20 11 WNW 1023,5 64 41 0,0
19.06.2018 18:00:00 20,9 14,7 23,4 24,2 19,6 16,2 13 7 18 10 W 1023,7 63 3 0,0
19.06.2018 17:00:00 20,9 15,2 23,5 24,3 19,3 16,2 10 6 16 8 WSW 1024,0 64 0 0,0
19.06.2018 16:00:00 20,1 14,9 22,7 24,3 19,0 16,2 10 6 18 10 WSW 1024,4 58 3 0,0
19.06.2018 15:00:00 19,7 14,7 22,8 23,9 18,7 16,2 12 6 19 11 WSW 1024,5 52 1 0,0

tt = Température de l'air
td = dewpoint
tt 5cm = Température de l'air 5cm
tt -5cm = Température de l'air -5cm
tt -20cm = Température de l'air -20cm
tt -100cm = Température de l'air -100cm
ff = Vitesse du vent
fx = gusts
dd = Direction du vent
ppp = reduced air pressure
vv = visibility
sd = Ensoleillement
rr = Quantités de précipitations

stations d'obs. à proximité